Location: Unspecified
(49.9820°N, 20.4363°E)
Time: 04:05:20
(UTC+02:00)

Vanguard 3 - Pass Details

Date: 22 May 2026
Orbit: 507 x 3204 km, 33.3° (Epoch: 6 June)

Event Time Altitude Azimuth Distance (km) Brightness Sun altitude
Rises 15:46:53 0° 263° (W) 6,646 12.6 42.1°
Reaches altitude 10° 15:51:22 10° 257° (WSW) 5,852 12.7 41.5°
Maximum altitude 16:08:16 42° 196° (SSW) 4,037 11.5 38.9°
Drops below altitude 10° 16:24:00 10° 133° (SE) 5,459 11.2 36.4°
Sets 16:28:02 0° 127° (SE) 6,180 11.3 35.8°
